Temp
-10 -10 -10 -10 -10 -10 -10 -10 -10 -10 -10 -11 -10 -10 -10 -10 -10 -10 -10 -10 -10 -10 -10 -10 -10 -10 -10 -10 -10 -10 -10 -10 -10 -10 -10 -10 -11 -11 -11 -11 -11 -11 -11
-10 -10 -10 -10 -10 -10 -10 -10 -11 -11 -11 -11 -11 -11 -10 -10 -10 -10 -11 -11 -11 -10 -10 -10 -10 -10 -10 -10 -10 -10 -10 -10 -10 -10 -10 -10 -11 -11 -11 -11 -11 -11 -11
-10 -10 -10 -10 -10 -10 -10 -10 -11 -11 -11 -11 -11 -10 -10 -10 -10 -11 -11 -11 -11 -11 -11 -11 -11 -10 -10 -10 -10 -10 -10 -10 -10 -10 -10 -10 -10 -11 -11 -11 -11 -11 -11
-9 -10 -10 -10 -10 -10 -11 -11 -11 -11 -11 -11 -10 -10 -10 -11 -11 -11 -11 -11 -11 -11 -11 -11 -11 -11 -10 -10 -10 -10 -10 -10 -10 -10 -10 -10 -10 -10 -11 -11 -11 -11 -11
-10 -10 -10 -10 -10 -10 -10 -11 -11 -11 -11 -11 -10 -10 -10 -10 -10 -10 -11 -11 -11 -11 -11 -11 -11 -10 -10 -11 -10 -10 -10 -10 -10 -10 -10 -10 -10 -10 -11 -11 -11 -11 -11
-10 -10 -10 -10 -10 -10 -10 -11 -11 -11 -11 -10 -10 -10 -10 -10 -10 -10 -10 -10 -10 -10 -11 -11 -11 -11 -11 -11 -10 -10 -10 -10 -10 -10 -10 -10 -11 -11 -11 -11 -11 -11 -11
-10 -10 -10 -10 -10 -10 -10 -11 -11 -11 -10 -10 -10 -10 -10 -10 -10 -10 -10 -10 -10 -10 -10 -10 -10 -10 -10 -10 -10 -10 -10 -10 -10 -11 -11 -11 -11 -11 -11 -11 -11 -11 -11
-10 -10 -10 -10 -10 -10 -10 -11 -11 -10 -10 -10 -10 -10 -10 -10 -10 -9 -9 -9 -9 -9 -9 -9 -10 -10 -10 -10 -10 -10 -10 -10 -10 -10 -11 -11 -11 -11 -11 -11 -11 -11 -12
-11 -11 -10 -10 -10 -10 -10 -11 -11 -11 -11 -11 -10 -10 -10 -10 -10 -10 -9 -9 -9 -9 -9 -9 -9 -10 -10 -10 -10 -10 -10 -10 -10 -10 -10 -10 -11 -11 -11 -11 -11 -11 -11
-11 -11 -11 -11 -10 -10 -10 -10 -11 -11 -11 -10 -10 -10 -10 -10 -10 -10 -9 -9 -9 -9 -9 -9 -9 -9 -10 -10 -10 -10 -10 -10 -10 -10 -10 -10 -11 -11 -11 -11 -11 -11 -11
-11 -11 -11 -11 -11 -11 -11 -11 -11 -10 -11 -10 -10 -10 -10 -10 -9 -9 -9 -9 -9 -9 -9 -9 -9 -10 -10 -10 -10 -10 -10 -10 -10 -10 -10 -10 -10 -11 -11 -11 -11 -11 -11
-11 -11 -11 -11 -11 -11 -11 -11 -11 -11 -10 -10 -10 -10 -10 -9 -9 -9 -9 -9 -9 -9 -10 -10 -10 -10 -10 -10 -10 -10 -10 -10 -11 -10 -10 -10 -11 -11 -11 -11 -11 -11 -11
-11 -11 -10 -11 -11 -11 -11 -11 -11 -11 -11 -11 -10 -10 -10 -10 -9 -9 -9 -10 -10 -10 -10 -10 -10 -10 -10 -10 -10 -10 -10 -11 -11 -11 -11 -11 -11 -11 -11 -11 -11 -11 -11
-11 -11 -10 -11 -11 -11 -11 -10 -10 -10 -10 -11 -10 -10 -10 -10 -10 -10 -10 -10 -10 -10 -10 -10 -10 -10 -10 -10 -10 -10 -10 -10 -10 -11 -11 -11 -11 -11 -11 -12 -12 -12 -11
-11 -11 -11 -11 -11 -11 -11 -10 -10 -10 -10 -10 -10 -10 -10 -10 -10 -10 -10 -10 -10 -10 -10 -10 -10 -10 -10 -10 -10 -10 -10 -10 -10 -10 -10 -11 -11 -11 -11 -11 -12 -12 -12
-12 -11 -11 -11 -11 -11 -10 -10 -10 -10 -10 -10 -10 -10 -10 -10 -10 -10 -10 -10 -10 -10 -10 -10 -10 -10 -11 -10 -10 -11 -10 -10 -10 -10 -11 -11 -11 -11 -12 -12 -12 -12 -12
-12 -12 -11 -11 -10 -10 -10 -10 -10 -10 -10 -10 -10 -10 -10 -10 -10 -10 -10 -10 -10 -11 -11 -11 -11 -10 -10 -11 -11 -11 -11 -11 -11 -11 -11 -11 -11 -11 -11 -11 -11 -11 -11
-11 -11 -11 -11 -11 -11 -11 -11 -11 -10 -10 -10 -10 -10 -10 -10 -10 -10 -10 -11 -11 -11 -11 -11 -11 -11 -11 -10 -11 -11 -11 -11 -11 -11 -11 -11 -11 -11 -11 -12 -12 -12 -13
-11 -11 -10 -11 -11 -11 -11 -11 -11 -11 -11 -11 -11 -11 -11 -11 -11 -11 -11 -11 -11 -11 -11 -10 -10 -11 -10 -10 -10 -10 -11 -11 -11 -12 -12 -12 -12 -12 -12 -11 -12 -12 -13
-11 -10 -11 -11 -11 -11 -11 -11 -11 -11 -11 -11 -11 -11 -11 -11 -11 -11 -11 -11 -11 -11 -11 -10 -10 -10 -10 -10 -11 -11 -11 -11 -11 -11 -11 -12 -12 -12 -12 -12 -12 -12 -12
-10 -11 -11 -11 -11 -11 -11 -11 -11 -11 -11 -11 -11 -11 -11 -11 -11 -11 -11 -11 -11 -11 -11 -11 -11 -11 -10 -10 -11 -11 -11 -11 -11 -11 -12 -12 -12 -12 -12 -12 -13 -13 -14
-10 -11 -11 -11 -11 -11 -11 -11 -11 -11 -11 -11 -11 -11 -11 -11 -11 -11 -11 -11 -11 -11 -11 -10 -10 -11 -11 -11 -11 -11 -11 -11 -11 -11 -11 -12 -12 -12 -12 -13 -14 -14 -14
-10 -11 -11 -11 -11 -10 -11 -11 -11 -11 -11 -11 -11 -11 -11 -11 -11 -11 -11 -12 -11 -11 -10 -10 -11 -11 -11 -11 -11 -11 -10 -10 -11 -11 -11 -11 -12 -13 -14 -15 -15 -15 -15
-11 -11 -12 -12 -11 -11 -11 -11 -12 -11 -11 -12 -12 -11 -11 -11 -11 -11 -11 -11 -11 -11 -10 -11 -11 -11 -10 -10 -10 -11 -11 -12 -11 -11 -12 -12 -12 -13 -14 -14 -15 -15 -15
-11 -11 -12 -12 -12 -12 -12 -12 -12 -11 -12 -12 -12 -11 -11 -12 -12 -12 -11 -11 -11 -11 -11 -11 -11 -11 -11 -11 -12 -12 -12 -12 -12 -12 -12 -13 -14 -15 -15 -15 -15 -15 -15
-11 -11 -12 -12 -12 -13 -13 -13 -12 -12 -12 -11 -11 -11 -12 -12 -12 -12 -12 -11 -11 -11 -11 -11 -11 -11 -12 -12 -12 -12 -12 -12 -12 -12 -12 -13 -14 -15 -16 -16 -17 -17 -18
Height
5889 5888 5887 5886 5885 5884 5882 5880 5878 5876 5875 5875 5875 5875 5875 5875 5874 5874 5873 5872 5872 5872 5871 5870 5870 5870 5869 5868 5867 5866 5865 5865 5864 5863 5862 5862 5861 5860 5860 5860 5860 5860 5861
5888 5887 5886 5885 5884 5882 5882 5880 5879 5878 5876 5876 5875 5874 5874 5874 5874 5874 5873 5873 5873 5872 5871 5870 5869 5869 5868 5867 5866 5866 5866 5865 5865 5864 5863 5861 5860 5860 5860 5860 5859 5860 5860
5887 5886 5886 5885 5883 5882 5881 5880 5879 5879 5877 5876 5875 5875 5874 5874 5873 5874 5873 5873 5873 5872 5872 5870 5869 5868 5868 5867 5866 5866 5865 5864 5864 5864 5863 5861 5860 5860 5860 5860 5859 5859 5859
5886 5886 5885 5884 5883 5882 5881 5880 5880 5879 5877 5876 5876 5875 5875 5874 5874 5874 5874 5874 5873 5873 5872 5871 5870 5869 5869 5868 5867 5866 5865 5864 5863 5863 5861 5861 5861 5860 5860 5859 5859 5858 5858
5886 5885 5884 5884 5883 5882 5881 5881 5880 5879 5878 5876 5876 5875 5875 5875 5875 5874 5874 5874 5874 5874 5873 5872 5870 5869 5869 5869 5868 5867 5865 5864 5863 5862 5861 5861 5861 5860 5859 5858 5858 5857 5857
5884 5884 5883 5883 5882 5881 5881 5879 5879 5879 5877 5876 5876 5875 5875 5874 5874 5874 5875 5875 5875 5875 5874 5873 5871 5869 5868 5867 5867 5866 5865 5864 5863 5862 5861 5859 5859 5859 5858 5858 5857 5856 5856
5882 5882 5882 5882 5881 5880 5879 5878 5878 5878 5877 5877 5876 5876 5875 5875 5875 5875 5875 5876 5876 5875 5874 5873 5871 5869 5868 5867 5866 5866 5865 5864 5863 5862 5861 5859 5859 5858 5858 5858 5858 5857 5856
5880 5879 5880 5880 5880 5879 5879 5878 5877 5877 5876 5877 5876 5876 5876 5875 5875 5875 5876 5875 5875 5875 5875 5874 5872 5870 5868 5867 5865 5864 5863 5862 5861 5861 5860 5859 5858 5857 5856 5855 5854 5854 5854
5878 5877 5878 5878 5878 5877 5877 5876 5875 5875 5874 5875 5875 5875 5875 5875 5875 5875 5875 5875 5874 5874 5873 5873 5872 5870 5868 5867 5865 5863 5863 5861 5860 5859 5858 5857 5856 5856 5855 5853 5852 5852 5851
5876 5876 5876 5876 5876 5875 5875 5874 5874 5873 5873 5873 5873 5873 5874 5874 5874 5874 5873 5873 5873 5872 5871 5871 5870 5869 5867 5866 5864 5862 5860 5859 5857 5857 5856 5854 5853 5852 5851 5851 5849 5848 5848
5874 5874 5873 5873 5873 5873 5873 5873 5873 5873 5872 5872 5872 5872 5872 5872 5872 5872 5872 5872 5871 5870 5869 5869 5868 5867 5866 5864 5862 5860 5858 5857 5855 5854 5853 5852 5851 5850 5849 5848 5847 5845 5844
5870 5870 5870 5870 5871 5871 5871 5870 5870 5870 5870 5870 5869 5869 5870 5870 5870 5870 5869 5869 5868 5867 5866 5865 5864 5863 5862 5861 5860 5858 5856 5855 5853 5851 5849 5848 5847 5846 5845 5843 5842 5841 5840
5866 5866 5867 5867 5868 5868 5867 5867 5867 5867 5867 5867 5867 5867 5867 5867 5867 5867 5866 5866 5865 5864 5863 5861 5860 5858 5857 5855 5855 5854 5853 5851 5850 5848 5846 5844 5842 5840 5839 5838 5836 5835 5834
5862 5862 5863 5863 5863 5863 5864 5864 5864 5864 5864 5864 5864 5864 5864 5864 5864 5863 5862 5861 5861 5860 5858 5856 5855 5853 5852 5850 5849 5848 5847 5846 5844 5842 5840 5837 5835 5833 5831 5830 5829 5827 5826
5856 5858 5859 5860 5859 5860 5859 5860 5861 5860 5861 5861 5860 5860 5860 5860 5859 5858 5857 5856 5856 5854 5853 5851 5850 5849 5848 5846 5845 5843 5842 5840 5838 5836 5834 5832 5829 5826 5824 5822 5821 5820 5818
5853 5853 5855 5855 5855 5856 5856 5856 5856 5857 5857 5857 5857 5856 5855 5854 5853 5852 5852 5851 5851 5849 5848 5847 5845 5844 5842 5841 5838 5837 5835 5832 5830 5827 5825 5823 5821 5818 5816 5814 5811 5809 5809
5847 5848 5850 5851 5851 5852 5852 5852 5851 5852 5853 5853 5852 5851 5849 5848 5848 5847 5847 5846 5845 5844 5842 5840 5839 5838 5836 5834 5832 5829 5827 5824 5822 5818 5815 5813 5812 5811 5808 5805 5803 5800 5797
5841 5843 5844 5846 5846 5846 5847 5847 5846 5846 5847 5847 5846 5845 5845 5844 5844 5844 5842 5840 5839 5838 5837 5835 5833 5831 5829 5827 5824 5821 5817 5814 5810 5807 5804 5802 5799 5797 5795 5793 5789 5787 5784
5835 5838 5839 5840 5840 5841 5841 5841 5840 5840 5841 5841 5840 5840 5840 5839 5838 5837 5836 5835 5834 5833 5831 5829 5826 5824 5821 5818 5814 5811 5809 5806 5803 5800 5797 5793 5790 5785 5781 5778 5776 5773 5771
5830 5832 5832 5835 5834 5835 5835 5835 5834 5835 5835 5834 5834 5834 5834 5833 5833 5832 5831 5830 5828 5826 5825 5822 5818 5815 5812 5809 5805 5800 5798 5794 5791 5787 5785 5781 5776 5772 5767 5764 5759 5756 5754
5824 5825 5825 5828 5828 5829 5829 5829 5828 5828 5828 5828 5827 5827 5826 5826 5825 5825 5824 5822 5821 5819 5815 5813 5809 5806 5802 5798 5794 5791 5787 5782 5778 5775 5769 5765 5759 5755 5750 5745 5742 5739 5737
5818 5819 5819 5821 5821 5822 5822 5822 5822 5822 5822 5822 5821 5821 5820 5819 5819 5818 5816 5814 5812 5809 5806 5803 5800 5797 5792 5787 5782 5776 5771 5768 5762 5757 5752 5746 5740 5735 5728 5723 5719 5716 5713
5811 5812 5813 5814 5814 5813 5813 5814 5815 5814 5814 5813 5813 5813 5812 5811 5810 5808 5806 5804 5802 5799 5796 5793 5788 5783 5777 5772 5768 5762 5758 5752 5747 5741 5735 5729 5723 5715 5708 5702 5697 5693 5689
5803 5804 5805 5807 5808 5808 5806 5806 5806 5806 5806 5806 5806 5805 5803 5802 5801 5799 5797 5795 5793 5789 5785 5780 5775 5769 5764 5758 5752 5746 5741 5735 5731 5727 5716 5707 5699 5691 5685 5680 5673 5664 5656
5794 5796 5797 5799 5800 5800 5800 5800 5799 5798 5799 5798 5797 5797 5796 5794 5793 5791 5789 5786 5782 5777 5772 5767 5762 5756 5750 5744 5738 5731 5724 5717 5708 5703 5698 5686 5676 5666 5657 5649 5643 5636 5629
5787 5788 5789 5790 5791 5792 5791 5791 5792 5791 5790 5789 5789 5787 5786 5785 5784 5781 5778 5774 5769 5764 5760 5755 5749 5741 5735 5729 5721 5714 5705 5696 5687 5677 5671 5663 5652 5646 5633 5621 5606 5595 5589
Wind_Speed
11 13 14 12 12 11 9 8 7 8 8 7 7 7 7 8 8 8 10 11 10 10 9 9 9 9 10 10 10 10 10 8 6 6 7 7 6 2 1 2 1 1 4
10 11 13 11 12 13 9 5 5 9 14 13 9 6 6 6 7 8 9 10 9 8 7 6 7 8 9 9 9 9 9 8 8 7 7 8 6 2 2 3 2 2 3
9 11 11 10 13 12 8 6 4 8 12 13 11 10 9 7 7 7 7 7 7 8 7 7 6 6 6 7 8 7 8 8 8 7 7 8 7 2 2 4 3 3 4
6 10 7 8 13 11 8 5 4 4 8 8 8 8 9 9 8 8 8 7 7 7 7 6 6 6 6 6 6 6 6 7 8 8 8 7 6 4 3 4 5 5 5
6 9 7 8 11 10 8 4 1 1 3 5 5 6 6 6 5 6 6 6 6 6 7 8 8 8 8 7 6 7 8 8 7 7 7 6 7 5 5 5 6 7 8
8 8 6 6 10 8 7 5 2 2 1 2 4 3 4 4 4 4 4 4 3 3 5 6 6 6 7 8 7 6 7 7 8 8 6 4 5 6 6 8 9 10 11
7 9 6 6 8 7 6 6 4 2 1 1 3 3 3 4 4 5 7 7 7 8 7 5 5 6 8 8 8 8 9 11 11 10 9 8 7 7 9 10 12 14 15
7 8 7 7 9 8 6 7 7 3 2 1 1 2 3 3 4 6 8 7 6 6 6 7 7 7 7 8 8 8 9 9 10 13 11 11 11 11 11 12 14 15 16
10 11 10 12 12 11 9 8 8 7 6 4 3 3 2 2 2 2 2 1 1 3 3 3 3 5 6 8 9 10 10 12 10 9 11 12 13 15 15 15 16 17 18
14 13 13 14 14 15 14 12 11 10 9 6 7 4 4 3 4 4 3 5 3 4 6 6 6 7 7 8 10 11 12 13 13 14 13 14 15 16 17 19 19 20 20
16 16 15 14 15 17 17 17 15 14 11 10 10 9 7 6 8 8 7 7 7 8 8 9 10 10 10 12 14 15 17 17 18 18 18 19 21 20 21 22 24 24 24
19 17 17 17 16 17 20 20 18 15 14 14 13 13 12 11 12 11 11 12 13 12 11 11 13 14 14 14 16 18 20 21 21 22 24 25 25 24 24 25 26 28 29
20 19 17 15 15 18 20 23 21 20 18 17 17 16 14 14 15 15 16 16 16 15 14 16 16 17 18 20 20 20 21 23 24 25 27 29 30 31 30 30 29 30 31
20 19 17 16 17 19 22 23 23 22 22 20 19 18 17 15 15 17 17 18 17 18 19 20 20 22 23 24 24 25 25 26 27 28 30 31 32 34 35 35 34 35 34
25 21 16 17 18 20 22 23 23 24 24 22 20 19 18 17 18 19 20 20 20 22 23 24 25 26 27 28 29 30 30 30 31 32 35 37 38 38 37 39 39 39 39
26 26 21 19 20 20 21 22 23 23 24 23 22 21 21 20 21 22 23 24 23 25 27 28 29 30 31 33 35 34 35 36 37 38 40 42 42 44 43 43 43 43 43
28 28 25 21 21 22 21 22 23 23 23 23 24 23 22 24 26 25 25 27 27 29 30 32 33 34 35 37 39 40 40 41 42 43 45 46 46 46 48 50 50 50 49
31 31 28 25 24 24 25 27 27 26 26 25 25 25 25 26 27 28 29 31 31 32 34 35 37 38 40 42 43 45 45 46 48 50 50 50 51 52 53 52 54 55 55
33 29 31 26 26 27 29 29 30 30 29 27 28 28 28 29 30 32 32 33 35 36 37 38 41 44 46 47 48 50 50 51 52 53 54 55 55 57 58 59 61 61 59
31 29 31 28 28 29 30 31 31 32 31 30 30 30 30 31 32 33 34 36 37 38 40 42 46 49 50 51 52 52 52 54 55 58 58 60 61 62 62 64 66 68 67
31 29 32 29 30 30 29 29 31 32 32 33 33 33 34 33 34 35 37 39 40 40 43 46 49 50 52 54 55 56 57 59 62 62 64 68 70 72 75 76 74 72 68
31 29 32 32 31 31 31 30 32 33 32 31 32 33 34 36 37 37 39 40 41 44 47 49 51 53 55 55 57 60 63 65 67 68 70 73 75 76 79 80 79 76 76
30 29 31 32 33 34 33 32 31 32 32 33 32 33 34 36 38 39 40 42 45 48 51 51 53 54 54 57 61 65 68 70 72 72 74 77 79 82 82 80 79 78 79
30 32 31 30 32 35 37 38 35 34 35 34 34 34 37 38 40 41 44 46 49 51 54 53 53 55 58 61 68 72 72 72 73 75 79 82 86 89 89 89 87 85 85
32 32 31 29 31 34 36 40 41 38 36 37 38 38 40 41 43 44 48 50 53 56 57 56 57 60 63 67 71 72 74 77 80 82 84 89 91 92 95 96 95 95 95
35 35 32 31 31 34 38 40 41 41 39 40 41 43 43 43 45 48 51 54 57 59 58 59 62 64 68 73 73 76 78 81 86 89 92 96 98 96 96 95 93 90 84
Wind_Direction
346 356 3 6 5 4 15 11 47 91 88 91 90 73 72 75 72 71 71 68 62 55 48 47 49 50 54 54 48 38 30 23 7 350 348 343 345 354 316 302 294 254 238
341 346 359 360 353 354 3 15 46 71 72 68 78 78 77 69 57 56 64 62 56 52 47 45 46 47 50 52 48 45 38 29 19 11 5 354 347 340 308 301 312 288 256
350 354 350 349 349 347 358 24 48 69 68 65 69 81 82 79 70 59 53 57 49 43 35 26 18 25 31 40 41 37 37 35 22 5 355 4 354 319 277 284 307 307 282
349 352 349 345 346 341 343 20 40 73 76 73 69 76 78 79 79 75 67 64 58 51 39 26 10 358 358 7 9 16 23 34 26 15 8 357 346 319 253 276 294 300 300
346 339 337 337 340 329 321 354 44 112 81 80 68 65 65 60 59 64 67 67 58 46 33 22 10 358 347 348 351 351 360 6 8 10 15 358 337 309 277 268 280 295 299
339 323 311 319 328 321 312 325 294 242 161 113 89 93 81 76 73 73 65 63 49 36 29 26 22 6 350 348 348 346 345 342 342 339 343 344 312 288 274 272 279 282 285
322 312 277 289 309 303 297 299 297 276 294 133 121 118 118 104 89 97 91 74 67 59 59 46 22 10 6 353 348 344 340 336 330 327 318 310 305 297 289 283 286 289 286
303 307 270 276 288 282 265 280 288 287 277 227 133 146 138 127 129 118 112 111 105 92 61 45 24 3 3 357 350 350 348 340 336 333 322 304 300 290 280 278 279 283 284
282 285 277 278 282 272 257 257 258 260 261 261 248 226 195 180 166 173 161 105 17 360 360 6 353 341 334 331 331 336 328 331 333 329 326 316 304 294 286 280 277 277 277
271 270 277 273 271 272 266 251 248 242 246 237 232 244 244 257 271 274 267 286 292 309 317 322 322 312 300 299 303 303 304 305 314 315 309 302 300 304 295 285 279 276 276
275 264 264 265 268 267 269 269 266 264 244 237 233 240 253 270 283 299 290 286 290 290 300 304 309 307 304 301 295 292 290 292 296 300 303 305 304 305 305 302 293 285 283
278 277 269 263 265 265 271 268 263 260 252 250 243 238 250 263 274 284 285 287 291 283 280 283 291 300 298 293 291 294 293 293 291 290 293 295 295 295 294 294 294 292 286
272 276 278 272 263 266 264 267 265 261 260 257 252 249 252 264 273 282 286 281 282 277 274 282 291 293 295 296 294 289 291 294 295 292 289 288 288 289 288 287 285 285 287
274 272 278 275 264 264 264 263 265 265 263 260 258 256 256 270 274 272 273 274 273 273 271 276 281 287 286 286 289 290 290 287 286 287 287 284 284 285 285 285 284 283 280
281 274 270 263 262 266 266 267 264 264 265 265 264 263 263 264 265 268 269 270 269 267 272 276 282 285 285 285 286 289 289 286 285 284 283 284 283 281 281 281 282 281 280
274 273 271 263 264 264 264 265 266 266 263 268 269 265 261 258 261 265 266 267 268 269 274 279 283 285 288 290 290 291 291 290 289 288 285 283 281 282 281 280 278 278 278
267 266 266 264 259 264 265 266 266 266 264 264 262 263 259 255 259 264 266 270 271 272 275 280 283 286 288 291 292 291 291 290 288 286 285 286 285 283 284 283 282 280 276
260 264 265 261 261 260 262 264 263 262 260 258 257 257 259 263 266 268 270 271 270 274 279 284 287 290 291 294 295 295 293 292 292 291 290 290 289 290 290 286 283 280 276
257 259 261 259 256 255 259 260 263 263 261 259 259 263 266 266 267 270 272 274 276 281 285 289 291 294 296 295 295 294 292 292 289 288 289 290 290 291 289 288 287 284 281
257 255 256 255 255 255 255 258 259 262 264 267 269 269 268 268 271 274 275 277 281 285 290 293 295 295 297 297 295 292 291 289 289 292 292 290 288 289 287 286 284 283 282
254 253 257 254 255 256 256 257 256 258 260 263 267 272 276 278 278 279 281 283 288 291 292 293 293 295 295 295 294 296 294 295 294 294 293 293 293 293 293 291 289 286 283
249 248 255 260 258 257 258 259 259 262 263 263 265 269 272 275 278 280 282 285 289 291 291 292 292 292 294 297 297 297 297 297 298 298 296 295 296 294 292 291 291 291 289
250 249 252 254 256 262 263 265 265 265 267 267 267 268 272 275 277 279 282 283 285 288 291 293 297 299 300 301 299 300 300 298 298 298 297 297 296 294 294 296 296 294 290
248 250 248 248 252 257 267 273 273 272 269 271 271 272 273 276 278 279 280 283 288 292 296 299 301 304 302 303 303 300 298 298 298 298 299 299 298 298 301 301 301 302 298
246 248 250 248 252 254 259 264 269 273 274 274 275 276 277 276 280 282 285 289 293 298 301 304 304 303 303 304 300 299 301 302 302 302 300 301 304 307 308 308 304 299 295
244 245 247 252 255 255 260 262 265 267 268 271 274 273 275 280 285 287 291 294 296 300 303 302 303 306 304 301 302 303 304 304 304 303 303 304 307 310 313 309 303 297 290